Home   Weather   Gera   Past weeks
Flag for Germany

Past Weather in Gera, Thuringia, Germany — Yesterday and Last 2 Weeks

Now
70 °F

Sunny.


Feels Like: 70 °F
Forecast: 68 / 54 °F
Wind: 12 mph from Southwest

Location: Altenburg Nobitz

Current Time: May 26, 2019 at 5:49:16 pm

Latest Report: May 26, 2019 at 5:20 pm


Visibility: 10 mi

Pressure: 29.89 "Hg

Humidity: 46%

Dew Point: 48 °F

Location of GeraLocation

Past Weather in Gera — Graph

°F

Gera Temperature Yesterday

Maximum temperature yesterday: 66 °F (at 3:20 pm)
Minimum temperature yesterday: 48 °F (at 4:20 am)
Average temperature yesterday: 57 °F

High & Low Weather Summary for the Past Weeks

 TemperatureHumidityPressure
High75 °F (May 19, 5:50 pm)100% (May 11, 6:20 pm)30.60 "Hg (May 11, 6:20 pm)
Low32 °F (May 15, 3:20 am)39% (May 19, 5:50 pm)29.53 "Hg (May 20, 5:20 pm)
Average53 °F77%29.98 "Hg
* Reported May 11 4:20 pm — May 26 4:20 pm, Gera. Weather by CustomWeather, © 2019

Note: Actual official high and low records may vary slightly from our data, if they occured in-between our weather recording intervals... More about our weather records

Advertising

Gera Weather History for the Previous 24 Hours

Scroll right to see more
 ConditionsComfort  
Time TempWeatherWind HumidityBarometerVisibility
4:20 pm
Sun, May 26
72 °FPassing clouds.12 mph44%29.89 "HgN/A
3:50 pm70 °FPassing clouds.12 mph43%29.89 "HgN/A
3:20 pm72 °FPassing clouds.13 mph44%29.92 "HgN/A
2:50 pm72 °FPassing clouds.13 mph44%29.92 "HgN/A
2:20 pm70 °FPassing clouds.10 mph46%29.92 "HgN/A
1:50 pm70 °FPassing clouds.10 mph50%29.92 "HgN/A
1:20 pm68 °FPassing clouds.9 mph49%29.95 "HgN/A
12:50 pm68 °FPassing clouds.12 mph49%29.95 "HgN/A
12:20 pm66 °FPassing clouds.9 mph49%29.95 "HgN/A
11:50 am66 °FPassing clouds.8 mph56%29.98 "HgN/A
11:20 am64 °FPassing clouds.9 mph56%29.98 "HgN/A
10:50 am64 °FPassing clouds.7 mph56%29.98 "HgN/A
10:20 am63 °FPassing clouds.8 mph56%29.98 "HgN/A
9:50 am61 °FPassing clouds.6 mph63%30.01 "HgN/A
9:20 am59 °FPassing clouds.7 mph68%30.01 "HgN/A
8:50 am57 °FSunny.8 mph67%30.01 "HgN/A
8:20 am57 °FSunny.6 mph67%30.01 "HgN/A
7:50 am55 °FSunny.6 mph77%30.01 "HgN/A
7:20 am54 °FSunny.2 mph82%30.01 "HgN/A
6:50 am52 °FSunny.No wind82%30.01 "HgN/A
6:20 am46 °FSunny.No wind93%30.01 "HgN/A
5:50 am45 °FSunny.2 mph93%30.01 "HgN/A
5:20 am45 °FPassing clouds.No wind93%30.01 "HgN/A
4:50 am45 °FPassing clouds.2 mph93%30.01 "HgN/A
4:20 am45 °FPassing clouds.1 mph93%30.01 "HgN/A
3:50 am48 °FPassing clouds.2 mph87%30.01 "HgN/A
3:20 am46 °FMostly cloudy.2 mph93%30.01 "HgN/A
2:50 am45 °FPassing clouds.No wind93%30.04 "HgN/A
2:20 am46 °FPassing clouds.3 mph93%30.04 "HgN/A
1:50 am46 °FPassing clouds.3 mph93%30.04 "HgN/A
1:20 am46 °FPassing clouds.2 mph93%30.04 "HgN/A
12:50 am46 °FPassing clouds.2 mph93%30.04 "HgN/A
12:20 am48 °FPassing clouds.2 mph87%30.04 "HgN/A
11:50 pm
Sat, May 25
50 °FClear.1 mph82%30.04 "HgN/A
11:20 pm50 °FClear.No wind88%30.04 "HgN/A
10:50 pm50 °FClear.3 mph88%30.04 "HgN/A
10:20 pm52 °FPassing clouds.5 mph82%30.01 "HgN/A
9:50 pm54 °FClear.3 mph82%30.01 "HgN/A
9:20 pm55 °FClear.5 mph77%30.01 "HgN/A
8:50 pm57 °FPassing clouds.7 mph72%29.98 "HgN/A
8:20 pm61 °FScattered clouds.9 mph68%29.98 "HgN/A
7:50 pm61 °FScattered clouds.8 mph68%29.98 "HgN/A
7:20 pm63 °FScattered clouds.3 mph68%29.98 "HgN/A
6:50 pm64 °FPassing clouds.2 mph60%29.98 "HgN/A
6:20 pm66 °FPassing clouds.3 mph56%29.98 "HgN/A
5:50 pm64 °FScattered clouds.3 mph60%29.98 "HgN/A
5:20 pm64 °FPartly sunny.5 mph64%29.98 "HgN/A
Weather by CustomWeather, © 2019

See weather overview